EW4883 Weather Reports


Display with metric or nautical units.
time (UTC)temp
F
wind
direction
speed
MPH
gust
MPH
rain 1hr
in
rain 24hr
in
rain mn
in
humidity
%
barometer
mb
20260508005553 86 360 5.0 14.0 0.00 0.00 0.00 12 1010.9
20260508005053 86 286 6.0 14.0 0.00 0.00 0.00 11 1010.9
20260508004553 86 360 6.0 13.0 0.00 0.00 0.00 11 1010.8
20260508004048 86 360 5.0 15.0 0.00 0.00 0.00 12 1010.8
20260508003552 87 360 7.0 15.0 0.00 0.00 0.00 11 1010.7
20260508003052 87 238 3.0 8.0 0.00 0.00 0.00 12 1010.6
20260508002552 87 296 2.0 11.0 0.00 0.00 0.00 12 1010.7
20260508002050 87 0 5.0 11.0 0.00 0.00 0.00 12 1010.7
20260508001553 88 302 3.0 12.0 0.00 0.00 0.00 12 1010.7
20260508001124 87 333 3.0 12.0 0.00 0.00 0.00 12 1010.7
20260508000550 87 302 4.0 12.0 0.00 0.00 0.00 12 1010.6
20260508000113 87 292 4.0 12.0 0.00 0.00 0.00 12 1010.6
20260507235555 87 246 2.0 12.0 0.00 0.00 0.00 12 1010.6
20260507235049 87 305 5.0 12.0 0.00 0.00 0.00 12 1010.7
20260507234553 87 22 4.0 14.0 0.00 0.00 0.00 12 1010.7
20260507234055 87 262 4.0 14.0 0.00 0.00 0.00 12 1010.6
20260507233549 88 288 6.0 14.0 0.00 0.00 0.00 12 1010.6
20260507233055 88 333 5.0 13.0 0.00 0.00 0.00 12 1010.6
20260507232549 87 360 6.0 13.0 0.00 0.00 0.00 12 1010.5
20260507232049 87 360 8.0 13.0 0.00 0.00 0.00 12 1010.5
20260507231559 87 360 4.0 10.0 0.00 0.00 0.00 12 1010.6
20260507231051 87 360 4.0 12.0 0.00 0.00 0.00 12 1010.5
20260507230554 87 257 3.0 12.0 0.00 0.00 0.00 12 1010.6
20260507230056 87 309 5.0 11.0 0.00 0.00 0.00 12 1010.8
20260507225549 86 0 1.0 8.0 0.00 0.00 0.00 13 1010.7
20260507225050 86 360 3.0 13.0 0.00 0.00 0.00 13 1010.9
20260507224553 86 324 3.0 13.0 0.00 0.00 0.00 13 1011.0
20260507224052 87 326 6.0 13.0 0.00 0.00 0.00 13 1011.0
20260507223551 87 315 2.0 10.0 0.00 0.00 0.00 13 1010.9
20260507223055 87 327 2.0 7.0 0.00 0.00 0.00 12 1010.9
20260507222549 87 167 1.0 9.0 0.00 0.00 0.00 12 1010.9
20260507222049 87 360 1.0 11.0 0.00 0.00 0.00 13 1011.0
20260507221601 87 352 5.0 11.0 0.00 0.00 0.00 12 1011.2
20260507221049 87 352 3.0 12.0 0.00 0.00 0.00 12 1011.2
20260507220554 87 352 6.0 12.0 0.00 0.00 0.00 12 1011.2
20260507220056 87 360 7.0 16.0 0.00 0.00 0.00 12 1011.3
20260507215550 87 30 4.0 16.0 0.00 0.00 0.00 12 1011.3
20260507215050 88 317 4.0 16.0 0.00 0.00 0.00 12 1011.4
20260507214554 87 0 3.0 15.0 0.00 0.00 0.00 11 1011.4
20260507214049 88 57 6.0 15.0 0.00 0.00 0.00 11 1011.3
20260507213550 88 244 2.0 8.0 0.00 0.00 0.00 11 1011.5
20260507213052 88 0 2.0 6.0 0.00 0.00 0.00 11 1011.7
20260507212549 88 86 0.0 14.0 0.00 0.00 0.00 11 1011.7
20260507212050 87 100 3.0 14.0 0.00 0.00 0.00 12 1011.7
20260507211600 87 10 2.0 14.0 0.00 0.00 0.00 11 1011.7
20260507211053 87 40 6.0 14.0 0.00 0.00 0.00 11 1011.8
20260507210552 86 82 7.0 14.0 0.00 0.00 0.00 11 1011.9
20260507210051 86 57 6.0 12.0 0.00 0.00 0.00 11 1011.9
20260507205549 87 44 6.0 12.0 0.00 0.00 0.00 11 1012.0
20260507205050 86 360 1.0 13.0 0.00 0.00 0.00 11 1012.0
20260507204558 86 57 4.0 13.0 0.00 0.00 0.00 11 1012.1
20260507204050 86 360 7.0 17.0 0.00 0.00 0.00 11 1012.2
20260507203552 86 30 9.0 17.0 0.00 0.00 0.00 11 1012.1
20260507203102 86 37 2.0 8.0 0.00 0.00 0.00 11 1012.3
20260507202552 86 257 3.0 7.0 0.00 0.00 0.00 11 1012.2
20260507202049 86 255 0.0 15.0 0.00 0.00 0.00 11 1012.2
20260507201556 86 9 7.0 15.0 0.00 0.00 0.00 11 1012.3
20260507201050 86 15 3.0 12.0 0.00 0.00 0.00 11 1012.4
20260507200550 85 254 4.0 9.0 0.00 0.00 0.00 11 1012.4
20260507200055 85 0 3.0 7.0 0.00 0.00 0.00 11 1012.5
20260507195552 85 223 1.0 7.0 0.00 0.00 0.00 11 1012.7
20260507195054 85 43 1.0 15.0 0.00 0.00 0.00 12 1012.7
20260507194557 84 84 5.0 15.0 0.00 0.00 0.00 11 1012.8
20260507194049 84 60 1.0 8.0 0.00 0.00 0.00 12 1012.9
20260507193550 84 360 2.0 8.0 0.00 0.00 0.00 11 1012.8
20260507193100 84 360 4.0 8.0 0.00 0.00 0.00 11 1013.0
20260507192552 84 350 1.0 8.0 0.00 0.00 0.00 11 1013.2
20260507192048 84 0 2.0 9.0 0.00 0.00 0.00 12 1013.4
20260507191600 84 360 1.0 9.0 0.00 0.00 0.00 14 1013.4
20260507191048 84 360 3.0 8.0 0.00 0.00 0.00 13 1013.4
20260507190549 84 360 1.0 9.0 0.00 0.00 0.00 13 1013.5
20260507190056 84 360 3.0 9.0 0.00 0.00 0.00 13 1013.5
20260507185549 84 313 2.0 8.0 0.00 0.00 0.00 14 1013.6
20260507185052 84 51 3.0 8.0 0.00 0.00 0.00 13 1013.6
20260507184555 83 360 2.0 5.0 0.00 0.00 0.00 14 1013.6
20260507184052 83 360 2.0 9.0 0.00 0.00 0.00 14 1013.7
20260507183555 83 360 2.0 9.0 0.00 0.00 0.00 15 1013.8
20260507183052 82 360 3.0 8.0 0.00 0.00 0.00 15 1013.8
20260507182552 82 360 1.0 8.0 0.00 0.00 0.00 16 1013.9
20260507182049 81 360 2.0 10.0 0.00 0.00 0.00 14 1013.9
20260507181553 81 360 4.0 10.0 0.00 0.00 0.00 15 1014.0
20260507181049 81 360 4.0 9.0 0.00 0.00 0.00 15 1014.1
20260507180552 81 360 3.0 6.0 0.00 0.00 0.00 16 1014.1
20260507180055 81 360 2.0 6.0 0.00 0.00 0.00 17 1014.1
20260507175549 81 0 0.0 11.0 0.00 0.00 0.00 17 1014.1
20260507175052 80 360 1.0 11.0 0.00 0.00 0.00 17 1014.2
20260507174625 80 360 4.0 11.0 0.00 0.00 0.00 17 1014.3
20260507174050 80 360 3.0 7.0 0.00 0.00 0.00 17 1014.2
20260507173552 79 360 1.0 7.0 0.00 0.00 0.00 17 1014.3
20260507173056 79 95 2.0 7.0 0.00 0.00 0.00 17 1014.3
20260507172550 79 360 0.0 6.0 0.00 0.00 0.00 18 1014.4
20260507172050 78 360 1.0 9.0 0.00 0.00 0.00 18 1014.4
20260507171609 78 360 1.0 9.0 0.00 0.00 0.00 19 1014.4
20260507171052 77 360 1.0 9.0 0.00 0.00 0.00 19 1014.5
20260507170553 77 360 3.0 9.0 0.00 0.00 0.00 19 1014.5
20260507170057 77 360 4.0 9.0 0.00 0.00 0.00 19 1014.5
20260507165555 77 360 4.0 9.0 0.00 0.00 0.00 19 1014.6
20260507165049 77 360 3.0 9.0 0.00 0.00 0.00 19 1014.6
20260507164558 77 360 3.0 6.0 0.00 0.00 0.00 20 1014.6
20260507164052 76 0 2.0 6.0 0.00 0.00 0.00 20 1014.6
20260507163552 76 360 2.0 9.0 0.00 0.00 0.00 20 1014.8
20260507163055 75 360 2.0 9.0 0.00 0.00 0.00 21 1014.9
20260507162551 74 360 3.0 9.0 0.00 0.00 0.00 21 1015.0
20260507162052 74 360 5.0 9.0 0.00 0.00 0.00 21 1015.0
20260507161558 74 360 4.0 8.0 0.00 0.00 0.00 21 1015.0
20260507161056 74 360 3.0 8.0 0.00 0.00 0.00 22 1015.1
20260507160551 74 360 2.0 8.0 0.00 0.00 0.00 22 1015.0
20260507160113 73 360 2.0 8.0 0.00 0.00 0.00 22 1015.1
20260507155556 73 360 3.0 8.0 0.00 0.00 0.00 22 1015.3
20260507155055 72 360 2.0 10.0 0.00 0.00 0.00 23 1015.3
20260507154552 72 360 4.0 10.0 0.00 0.00 0.00 23 1015.3
20260507154053 72 360 3.0 9.0 0.00 0.00 0.00 23 1015.3
20260507153559 72 360 3.0 8.0 0.00 0.00 0.00 24 1015.2
20260507153058 72 360 3.0 8.0 0.00 0.00 0.00 25 1015.2
20260507152600 72 360 2.0 6.0 0.00 0.00 0.00 25 1015.3
20260507152055 71 360 3.0 9.0 0.00 0.00 0.00 25 1015.4
20260507151558 71 360 3.0 9.0 0.00 0.00 0.00 24 1015.3
20260507151049 71 59 3.0 7.0 0.00 0.00 0.00 24 1015.4
20260507150552 70 121 3.0 8.0 0.00 0.00 0.00 24 1015.3
20260507150101 70 74 4.0 8.0 0.00 0.00 0.00 27 1015.4
20260507145549 70 98 2.0 7.0 0.00 0.00 0.00 27 1015.4
20260507145050 70 78 4.0 7.0 0.00 0.00 0.00 27 1015.4
20260507144552 69 73 3.0 7.0 0.00 0.00 0.00 27 1015.4
20260507144049 69 69 2.0 5.0 0.00 0.00 0.00 27 1015.4
20260507143552 68 133 1.0 5.0 0.00 0.00 0.00 28 1015.4
20260507143105 68 133 2.0 5.0 0.00 0.00 0.00 29 1015.4
20260507142556 67 137 2.0 4.0 0.00 0.00 0.00 30 1015.4
20260507142052 67 137 2.0 5.0 0.00 0.00 0.00 32 1015.5
20260507141610 66 137 1.0 5.0 0.00 0.00 0.00 31 1015.4
20260507141049 66 137 2.0 5.0 0.00 0.00 0.00 32 1015.4
20260507140549 65 138 0.0 3.0 0.00 0.00 0.00 34 1015.4
20260507140110 64 138 1.0 4.0 0.00 0.00 0.00 35 1015.3
20260507135552 63 95 1.0 4.0 0.00 0.00 0.00 37 1015.4
20260507135049 62 117 1.0 4.0 0.00 0.00 0.00 38 1015.4
20260507134555 62 116 1.0 4.0 0.00 0.00 0.00 39 1015.4
20260507134051 61 360 1.0 4.0 0.00 0.00 0.00 40 1015.4
20260507133549 60 360 2.0 4.0 0.00 0.00 0.00 42 1015.3
20260507133103 59 360 2.0 4.0 0.00 0.00 0.00 43 1015.2
20260507132552 59 0 2.0 4.0 0.00 0.00 0.00 44 1015.3
20260507132048 58 360 0.0 3.0 0.00 0.00 0.00 45 1015.2
20260507131618 57 0 0.0 0.0 0.00 0.00 0.00 48 1015.2
20260507131050 56 0 0.0 0.0 0.00 0.00 0.00 51 1015.2
20260507130552 55 0 0.0 0.0 0.00 0.00 0.00 52 1015.1
20260507130106 55 0 0.0 0.0 0.00 0.00 0.00 53 1015.0
20260507125552 55 0 0.0 0.0 0.00 0.00 0.00 52 1014.9
20260507125053 54 0 0.0 0.0 0.00 0.00 0.00 51 1015.0
20260507124602 54 0 0.0 0.0 0.00 0.00 0.00 51 1014.9
20260507124052 54 0 0.0 0.0 0.00 0.00 0.00 51 1015.0
20260507123552 55 0 0.0 0.0 0.00 0.00 0.00 52 1015.0
20260507123101 55 0 0.0 0.0 0.00 0.00 0.00 50 1014.8
20260507122548 55 0 0.0 0.0 0.00 0.00 0.00 48 1014.9
20260507122052 56 0 0.0 0.0 0.00 0.00 0.00 48 1015.0
20260507121556 56 0 0.0 0.0 0.00 0.00 0.00 47 1014.9
20260507121053 56 0 0.0 0.0 0.00 0.00 0.00 46 1014.8
20260507120552 57 0 0.0 1.0 0.00 0.00 0.00 45 1014.8
20260507120058 58 0 0.0 1.0 0.00 0.00 0.00 44 1014.8
20260507115553 58 250 0.0 1.0 0.00 0.00 0.00 42 1014.9
20260507115052 59 0 0.0 0.0 0.00 0.00 0.00 41 1014.9
20260507114557 59 0 0.0 3.0 0.00 0.00 0.00 40 1015.0
20260507114052 59 0 0.0 4.0 0.00 0.00 0.00 40 1014.9
20260507113552 59 0 0.0 4.0 0.00 0.00 0.00 40 1015.0
20260507113123 59 250 0.0 4.0 0.00 0.00 0.00 40 1015.0
20260507112552 60 0 0.0 3.0 0.00 0.00 0.00 39 1014.9
20260507112057 60 0 0.0 3.0 0.00 0.00 0.00 38 1014.8
20260507111553 60 0 1.0 3.0 0.00 0.00 0.00 39 1014.6
20260507111053 60 249 1.0 3.0 0.00 0.00 0.00 38 1014.7
20260507110553 60 249 1.0 3.0 0.00 0.00 0.00 38 1014.7
20260507110051 60 249 1.0 3.0 0.00 0.00 0.00 37 1014.8
20260507105552 60 0 1.0 4.0 0.00 0.00 0.00 38 1014.6
20260507105049 60 360 1.0 4.0 0.00 0.00 0.00 38 1014.8
20260507104602 59 250 1.0 4.0 0.00 0.00 0.00 40 1014.7
20260507104053 58 250 0.0 0.0 0.00 0.00 0.00 42 1014.8
20260507103553 58 0 0.0 0.0 0.00 0.00 0.00 42 1014.9
20260507103053 58 0 0.0 0.0 0.00 0.00 0.00 42 1014.8
20260507102552 59 0 0.0 0.0 0.00 0.00 0.00 42 1015.0
20260507102052 59 0 0.0 0.0 0.00 0.00 0.00 40 1015.0
20260507101556 59 0 0.0 0.0 0.00 0.00 0.00 40 1015.0
20260507101053 59 0 0.0 0.0 0.00 0.00 0.00 40 1015.0
20260507100552 60 0 0.0 0.0 0.00 0.00 0.00 39 1015.1
20260507100057 60 0 0.0 2.0 0.00 0.00 0.00 37 1015.0
20260507095552 61 0 0.0 3.0 0.00 0.00 0.00 36 1015.0
20260507095052 61 0 1.0 3.0 0.00 0.00 0.00 35 1015.1
20260507094555 62 360 1.0 3.0 0.00 0.00 0.00 35 1015.1
20260507094053 62 360 1.0 4.0 0.00 0.00 0.00 34 1015.1
20260507093552 62 360 0.0 4.0 0.00 0.00 0.00 33 1015.2
20260507093053 62 0 0.0 2.0 0.00 0.00 0.00 34 1015.2
20260507092549 62 0 0.0 3.0 0.00 0.00 0.00 34 1015.3
20260507092051 63 0 1.0 3.0 0.00 0.00 0.00 34 1015.3
20260507091552 63 250 1.0 3.0 0.00 0.00 0.00 33 1015.4
20260507091051 63 250 1.0 3.0 0.00 0.00 0.00 32 1015.3
20260507090554 63 250 1.0 3.0 0.00 0.00 0.00 31 1015.3
20260507090055 64 250 1.0 2.0 0.00 0.00 0.00 30 1015.4
20260507085552 65 0 0.0 3.0 0.00 0.00 0.00 29 1015.4
20260507085052 66 0 0.0 5.0 0.00 0.00 0.00 28 1015.4
20260507084559 66 0 1.0 5.0 0.00 0.00 0.00 27 1015.4
20260507084053 66 250 2.0 5.0 0.00 0.00 0.00 27 1015.4
20260507083555 66 250 2.0 5.0 0.00 0.00 0.00 27 1015.3
20260507083053 66 250 1.0 5.0 0.00 0.00 0.00 27 1015.4
20260507082554 66 250 2.0 4.0 0.00 0.00 0.00 26 1015.4
20260507082052 67 250 1.0 4.0 0.00 0.00 0.00 26 1015.4
20260507081551 67 250 2.0 7.0 0.00 0.00 0.00 26 1015.5
20260507081053 67 250 3.0 7.0 0.00 0.00 0.00 26 1015.5
20260507080552 67 254 2.0 6.0 0.00 0.00 0.00 26 1015.5
20260507080056 67 260 2.0 6.0 0.00 0.00 0.00 26 1015.5
20260507075554 67 259 1.0 6.0 0.00 0.00 0.00 26 1015.5
20260507075052 67 259 2.0 7.0 0.00 0.00 0.00 25 1015.5
20260507074555 67 257 2.0 7.0 0.00 0.00 0.00 25 1015.4
20260507074049 67 253 3.0 7.0 0.00 0.00 0.00 25 1015.5
20260507073552 67 249 3.0 7.0 0.00 0.00 0.00 25 1015.5
20260507073058 67 250 4.0 8.0 0.00 0.00 0.00 25 1015.4
20260507072552 67 247 3.0 8.0 0.00 0.00 0.00 25 1015.4
20260507072054 67 248 3.0 5.0 0.00 0.00 0.00 25 1015.4
20260507071551 67 248 2.0 5.0 0.00 0.00 0.00 25 1015.5
20260507071052 67 248 3.0 5.0 0.00 0.00 0.00 25 1015.4
20260507070552 67 248 2.0 5.0 0.00 0.00 0.00 25 1015.4
20260507070108 67 248 2.0 4.0 0.00 0.00 0.00 25 1015.5
20260507065551 67 248 2.0 4.0 0.00 0.00 0.00 25 1015.4
20260507065049 68 248 2.0 5.0 0.00 0.00 0.00 24 1015.4
20260507064554 68 248 2.0 5.0 0.00 0.00 0.00 24 1015.4
20260507064049 67 248 2.0 5.0 0.00 0.00 0.00 24 1015.5
20260507063553 67 250 2.0 7.0 0.00 0.00 0.00 24 1015.4
20260507063056 67 250 2.0 7.0 0.00 0.00 0.00 24 1015.4
20260507062552 68 250 3.0 8.0 0.00 0.00 0.00 24 1015.5
20260507062052 68 257 3.0 8.0 0.00 0.00 0.00 24 1015.5
20260507061555 67 254 2.0 7.0 0.00 0.00 0.00 24 1015.5
20260507061053 67 253 2.0 7.0 0.00 0.00 0.00 24 1015.5
20260507060552 67 254 2.0 5.0 0.00 0.00 0.00 24 1015.5
20260507060055 67 254 3.0 5.0 0.00 0.00 0.00 24 1015.6
20260507055552 67 254 2.0 5.0 0.00 0.00 0.00 24 1015.6
20260507055051 67 254 2.0 5.0 0.00 0.00 0.00 24 1015.5
20260507054551 67 254 2.0 5.0 0.00 0.00 0.00 24 1015.6
20260507054055 67 254 2.0 5.0 0.00 0.00 0.00 24 1015.6
20260507053552 67 254 2.0 4.0 0.00 0.00 0.00 24 1015.6
20260507053058 68 254 1.0 4.0 0.00 0.00 0.00 24 1015.6
20260507052552 68 254 1.0 5.0 0.00 0.00 0.00 23 1015.5
20260507052053 68 254 2.0 7.0 0.00 0.00 0.00 23 1015.6
20260507051559 68 254 2.0 7.0 0.00 0.00 0.00 23 1015.6
20260507051048 68 254 3.0 7.0 0.00 0.00 0.00 23 1015.5
20260507050553 68 254 2.0 5.0 0.00 0.00 0.00 23 1015.5
20260507050107 68 254 2.0 4.0 0.00 0.00 0.00 23 1015.5
20260507045552 68 253 2.0 4.0 0.00 0.00 0.00 23 1015.4
20260507045052 68 253 2.0 4.0 0.00 0.00 0.00 23 1015.4
20260507044558 68 253 1.0 5.0 0.00 0.00 0.00 23 1015.3
20260507044056 69 253 2.0 5.0 0.00 0.00 0.00 23 1015.3
20260507043552 69 253 2.0 7.0 0.00 0.00 0.00 23 1015.3
20260507043054 69 253 2.0 7.0 0.00 0.00 0.00 23 1015.2
20260507042552 69 253 2.0 7.0 0.00 0.00 0.00 23 1015.2
20260507042052 69 251 3.0 8.0 0.00 0.00 0.00 23 1015.1
20260507041555 69 249 3.0 8.0 0.00 0.00 0.00 23 1015.1
20260507041052 69 261 2.0 8.0 0.00 0.00 0.00 23 1015.1
20260507040551 70 261 2.0 8.0 0.00 0.00 0.00 23 1015.0
20260507040101 70 260 3.0 8.0 0.00 0.00 0.00 23 1015.0
20260507035556 70 249 4.0 7.0 0.00 0.00 0.00 22 1015.0
20260507035052 70 257 3.0 7.0 0.00 0.00 0.00 22 1014.9
20260507034602 70 265 3.0 8.0 0.00 0.00 0.00 22 1014.8
20260507034052 70 256 3.0 8.0 0.00 0.00 0.00 22 1014.9
20260507033552 71 257 4.0 8.0 0.00 0.00 0.00 22 1014.7
20260507033055 71 269 4.0 8.0 0.00 0.00 0.00 21 1014.7
20260507032553 71 261 4.0 8.0 0.00 0.00 0.00 22 1014.7
20260507032052 71 271 4.0 9.0 0.00 0.00 0.00 21 1014.6
20260507031557 71 262 3.0 9.0 0.00 0.00 0.00 22 1014.6
20260507031052 71 258 2.0 7.0 0.00 0.00 0.00 22 1014.5
20260507030552 71 271 3.0 8.0 0.00 0.00 0.00 22 1014.5
20260507030054 72 257 3.0 8.0 0.00 0.00 0.00 22 1014.4
20260507025558 72 284 3.0 8.0 0.00 0.00 0.00 21 1014.4
20260507025052 72 260 3.0 8.0 0.00 0.00 0.00 21 1014.3
20260507024556 72 269 3.0 7.0 0.00 0.00 0.00 21 1014.2
20260507024100 72 253 2.0 7.0 0.00 0.00 0.00 21 1014.1
20260507023555 72 262 2.0 7.0 0.00 0.00 0.00 21 1014.1
20260507023051 73 0 2.0 8.0 0.00 0.00 0.00 21 1014.2
20260507022553 73 259 2.0 8.0 0.00 0.00 0.00 20 1014.1
20260507022053 73 309 2.0 7.0 0.00 0.00 0.00 20 1014.0
20260507021623 73 288 2.0 6.0 0.00 0.00 0.00 20 1014.0
20260507021052 73 296 2.0 7.0 0.00 0.00 0.00 20 1013.9
20260507020553 74 287 2.0 7.0 0.00 0.00 0.00 20 1014.0
20260507020052 74 298 2.0 8.0 0.00 0.00 0.00 20 1014.0
20260507015552 75 306 2.0 8.0 0.00 0.00 0.00 20 1014.0
20260507015052 75 290 3.0 7.0 0.00 0.00 0.00 19 1014.0
20260507014550 76 316 2.0 5.0 0.00 0.00 0.00 19 1013.9
20260507014052 76 315 1.0 7.0 0.00 0.00 0.00 19 1013.9
20260507013552 76 304 2.0 10.0 0.00 0.00 0.00 19 1014.0
20260507013053 76 278 4.0 10.0 0.00 0.00 0.00 18 1013.9
20260507012554 77 292 2.0 9.0 0.00 0.00 0.00 19 1014.0
20260507012052 77 300 2.0 9.0 0.00 0.00 0.00 19 1013.9
20260507011556 77 323 4.0 9.0 0.00 0.00 0.00 19 1013.9
20260507011052 77 292 2.0 8.0 0.00 0.00 0.00 19 1013.9
20260507010554 77 275 1.0 10.0 0.00 0.00 0.00 19 1013.9
20260507010054 77 331 2.0 10.0 0.00 0.00 0.00 19 1013.9